{"data":{"norad_id":68085,"epoch":"2026-05-24T19:24:41.294592Z","epoch_age_seconds":87450,"freshness":"FRESH","line1":"1 68085U 26042S   26144.80881128  .00011227  00000+0  34291-3 0  9998","line2":"2 68085  53.1587 182.6956 0001362  74.3332 285.7821 15.34400406 13991","mean_motion":15.34400406,"eccentricity":0.0001362,"inclination_deg":53.1587,"raan_deg":182.6956,"arg_perigee_deg":74.3332,"mean_anomaly_deg":285.7821,"bstar":0.00034291,"rev_number":1399,"period_min":93.847733249362,"perigee_km":461.77031121345,"apogee_km":463.63375576617,"semimajor_km":6840.8390334898,"source":"CELESTRAK","updated_at":"2026-05-25T13:38:21.820635Z"}}